sat.trackr.live / text

‹ back to catalog

STARLINK-31530

NORAD 59322 · 2024-057C

PAYLOAD ACTIVE UNKNOWN

§ Identity

Operator
Country
US
Launch date
2024-03-25
Launch site
AFETR
Launch vehicle
Mass (kg)
RCS (m²)

Purposes: comms

External: N2YO · Heavens-Above · Gunter

§ Orbital elements

Epoch: 2026-05-25T03:29:05.451072Z

Period
91.98 min
Inclination
42.9884°
Eccentricity
0.0023768
Mean motion
15.65505599 rev/d
Perigee alt
355.7 km
Apogee alt
387.8 km
Semi-major
6,749.9 km
B*
6.8916e-4
RAAN
96.8205°
Arg perigee
170.4172°
Mean anomaly
189.7151°
Rev number
12,174

§ Raw data

STARLINK-315301 59322U 24057C   26145.14520198  .00072307  00000+0  68916-3 0  99982 59322  42.9884  96.8205 0023768 170.4172 189.7151 15.65505599121743

JSON: /api/v1/satellites/59322 · /tle

For live sub-satellite position, see the globe view (requires WebGL).

§ Visibility from observer

Set your observer location to see the next 7 days of passes ≥ 10°. The values pass through the URL so the page stays shareable.

No JS? Fill the form by hand. The geolocation button needs JavaScript.